Location: Unspecified
(58.7730°N, 5.8460°E)
Time: 16:05:59
(UTC+02:00)

Cosmos 1674 - Visible Passes

Search period start: 02 September 2014 00:00
Search period end: 12 September 2014 00:00
Orbit: 514 x 544 km, 82.5° (Epoch: 01 September)

Date Brightness Start Highest point End Pass type
(mag) Time Alt. Az. Time Alt. Az. Time Alt. Az.
02 Sep 2.9 00:41:12 10° NNW 00:45:00 59° W 00:45:00 59° W visible
02 Sep 4.4 22:54:45 10° N 22:57:44 21° ENE 22:58:52 19° E visible
03 Sep 2.9 00:30:18 10° NNW 00:34:08 63° W 00:34:08 63° W visible
03 Sep 5.4 02:09:09 10° WNW 02:09:19 10° WNW 02:09:25 10° W visible
03 Sep 4.5 22:43:55 10° N 22:46:49 20° ENE 22:48:00 18° E visible
04 Sep 2.8 00:19:24 10° NNW 00:23:15 68° W 00:23:17 68° WSW visible
04 Sep 5.4 01:57:33 10° WNW 01:58:28 11° W 01:58:33 11° W visible
04 Sep 4.5 22:33:03 10° NNE 22:35:53 19° ENE 22:37:09 17° E visible
05 Sep 2.7 00:08:29 10° NNW 00:12:21 72° W 00:12:25 72° WSW visible
05 Sep 5.3 01:46:20 10° WNW 01:47:37 11° W 01:47:42 11° W visible
05 Sep 4.6 22:22:12 10° NNE 22:24:57 18° ENE 22:26:17 16° E visible
05 Sep 2.6 23:57:34 10° NNW 00:01:27 77° W 00:01:34 76° SW visible
06 Sep 5.3 01:35:12 10° WNW 01:36:45 12° W 01:36:51 12° W visible
06 Sep 4.6 22:11:21 10° NNE 22:14:00 17° ENE 22:15:26 15° E visible
06 Sep 2.6 23:46:39 10° NNW 23:50:32 82° WSW 23:50:43 79° SSW visible
07 Sep 5.3 01:24:06 10° NW 01:25:53 13° W 01:25:59 13° W visible
07 Sep 4.7 22:00:29 10° NNE 22:03:03 17° ENE 22:04:35 14° E visible
07 Sep 2.6 23:35:44 10° NNW 23:39:38 87° WSW 23:39:52 78° S visible
08 Sep 5.2 01:13:02 10° NW 01:15:01 14° W 01:15:08 14° W visible
08 Sep 4.7 21:49:38 10° NNE 21:52:05 16° NE 21:53:44 13° E visible
08 Sep 2.5 23:24:48 10° NNW 23:28:42 88° ENE 23:29:01 75° SSE visible
09 Sep 5.2 01:01:58 10° NW 01:04:07 15° W 01:04:18 15° W visible
09 Sep 4.8 21:38:46 10° NNE 21:41:07 15° NE 21:42:54 12° E visible
09 Sep 2.6 23:13:52 10° NNW 23:17:46 83° ENE 23:18:10 70° SE visible
10 Sep 5.1 00:50:55 10° NW 00:53:14 15° W 00:53:27 15° W visible
10 Sep 4.8 21:27:54 10° NNE 21:30:08 15° NE 21:32:03 11° E visible
10 Sep 2.6 23:02:56 10° NNW 23:06:50 78° ENE 23:07:20 64° SE visible
11 Sep 5.0 00:39:52 10° NW 00:42:20 16° W 00:42:37 16° W visible
11 Sep 4.8 21:17:03 10° NNE 21:19:09 14° NE 21:21:13 10° E visible
11 Sep 2.7 22:51:59 10° N 22:55:53 73° ENE 22:56:30 59° SE visible
